Location: Trois-Rivi�res
(46.3500°N, 72.5500°W)
Time: 19:50:10
(UTC-04:00)

Envisat - Pass Details

Date: 10 October 2017
Orbit: 764 x 766 km, 98.2° (Epoch: 19 October)

Event Time Altitude Azimuth Distance (km) Brightness Sun altitude
Exits shadow 19:27:28 20° 99° (E) 1,709 4.2 -13.8°
Maximum altitude 19:29:32 26° 63° (ENE) 1,466 4.0 -14.1°
Drops below altitude 10° 19:33:42 10° 8° (N) 2,313 5.5 -14.8°
Sets 19:36:19 0° 357° (N) 3,243 6.4 -15.3°
